Weather in Volosyanka

Ukraine / Zakarpattia District     48°58′50″N   22°48′25″E
temp.,
°C
wind,
m/s
gust,
m/s
humid.,
%
clouds,
%
prec.,
mm/h
press.,
hPa
HPBL,
m
26 july, mon
mon2600:00+15ese227576 0.1 101622
03:00+15s2278100 0.2 101619
06:00+16s2271100 0.1 101622
09:00+19s257872 0.5 1015207
12:00+25ssw610440 0.0 10151379
15:00+27ssw610390 0.0 10152238
18:00+25ssw485092 0.0 10151290
21:00+19sse22740 0.0 101533
27 july, tue
tue2700:00+18se227350 0.0 101632
03:00+18sse2374100 0.1 101659
06:00+16sse358946 0.0 101788
09:00+22s310654 0.0 1016638
12:00+25ssw610492 0.0 10151223
15:00+28sw711388 0.0 10152499
18:00+28sw484124 0.0 10142527
21:00+20sw11716 0.0 101511
28 july, wed
wed2800:00+17ne118996 0.1 101713
03:00+17e228728 0.5 101627
06:00+16se119069 1.8 101611
09:00+21s238298 1.8 1015138
12:00+27ssw410403 0.0 10141664
15:00+30sw7123221 0.0 10123471
18:00+29sw614340 0.0 10093293
21:00+20w11620 0.0 101211
29 july, thu
thu2900:00+17e118652 0.3 101411
03:00+16wsw118936 0.4 101311
06:00+16n2193100 0.1 101417
09:00+19nne238310 0.1 1014416
12:00+24nne226033 0.4 10141081
15:00+23nnw117323 2.9 1014832
18:00+23nnw12668 1.4 1014915
21:00+18ne11880 1.5 101411
30 july, fri
fri3000:00+16ene11940 0.0 101511
03:00+15ene11940 0.0 101511
06:00+15ene11902 0.0 101411
09:00+22se12594 0.0 1013191
12:00+26sw34410 0.0 10121536
15:00+28ssw45348 0.0 10112760
18:00+22sse23589 0.1 101045
21:00+18ese218515 1.3 101013